User: anonymous   Login
Location: Unspecified
(0.0000°N, 0.0000°E)
Time: 19:18:58
(UTC+00:00)
Language:

STARLINK-5865 - Orbit

View from above orbital plane
View from above orbital plane
View from above satellite
View from above satellite

Ground track
Ground track

The orbit is defined by the following mean orbital elements,

1 57053U          26145.40692689 +.00000000 +00000-0 +62975-6 0 00000
2 57053  43.0038  37.5473 0001142 272.6101  87.4620 15.27576701    04
Epoch (UTC): 25 May 2026 09:45:58
Eccentricity: 0.0001142
inclination: 43.0038°
perigee height: 482 km
apogee height: 484 km
right ascension of ascending node: 37.5473°
argument of perigee: 272.6101°
revolutions per day: 15.27576701
mean anomaly at epoch: 87.4620°

The dashed part of the orbit path shows where the satellite is in the earth's shadow,  

DLR